CAPE
1068 855 699 631 591 516 552 531 583 640 864 938 992 1037 995 938 810 676 460 373 431 548 588 585 725 971 1104 1194 1169 1100 1087 1015 852 726 762 831 851 814 742 579 445 739
1132 925 792 695 609 564 628 628 706 755 882 1058 1089 1089 1090 1024 979 852 786 670 561 643 720 722 796 1108 1259 1241 1192 1166 1114 1010 908 858 896 874 825 833 754 598 491 599
1213 1023 890 797 672 627 634 710 785 866 930 1084 1175 1140 1096 1061 1089 1025 940 868 736 842 901 849 908 1110 1202 1221 1160 1139 1115 1022 944 964 1026 1023 890 802 713 607 565 509
1360 1174 997 888 763 706 669 670 808 936 982 1054 1185 1220 1156 1118 1119 1069 986 1069 832 785 748 896 891 828 1021 1190 1156 1166 1123 1056 1051 1042 1054 1042 976 926 824 687 638 624
1456 1278 1043 938 861 782 736 666 716 914 1031 1072 1131 1214 1204 1152 1093 1035 1001 974 921 803 743 733 1036 1066 1089 1280 1265 1215 1190 1197 1149 1082 1063 1044 1012 975 990 943 801 684
1450 1264 1062 978 961 922 832 731 752 863 991 1062 1076 1077 1125 1152 1162 1145 1094 1018 943 918 839 794 981 1183 1261 1347 1373 1342 1321 1267 1211 1105 1094 1059 1066 1095 1112 1051 992 935
1468 1199 1105 1014 992 992 975 913 853 883 973 1057 1105 1153 1169 1168 1165 1183 1146 1112 1288 1170 1012 921 930 905 1118 1328 1389 1404 1367 1319 1204 1117 1212 1255 1227 1212 1137 1054 1079 1083
1594 1384 1234 1167 1063 1007 999 1007 964 951 981 1032 1093 1179 1238 1280 1302 1361 1442 1500 1555 1427 1158 1024 890 887 1064 1276 1394 1434 1429 1376 1248 1174 1234 1296 1261 1167 1037 1089 1099 1052
1619 1548 1421 1304 1225 1111 1029 977 931 992 1058 1094 1106 1133 1275 1398 1482 1602 1687 1668 1651 1605 1473 1273 1170 1114 1091 1316 1458 1519 1515 1440 1333 1278 1298 1278 1116 1070 1144 1111 1069 1032
1551 1486 1454 1390 1332 1227 1098 1021 998 1028 1082 1106 1076 1130 1383 1568 1687 1771 1776 1748 1719 1717 1655 1577 1518 1426 1195 1418 1549 1606 1581 1518 1448 1421 1447 1399 1266 1250 1203 1110 1090 1057
1359 1298 1389 1399 1376 1341 1270 1110 1080 1146 1161 1138 1119 1118 1276 1594 1780 1793 1722 1636 1653 1724 1768 1720 1702 1629 1478 1556 1640 1656 1658 1622 1579 1569 1555 1495 1423 1383 1310 1267 1198 1000
951 1141 1358 1275 1303 1203 1182 1212 1191 1261 1296 1323 1301 1256 1212 1190 1309 1568 1690 1720 1754 1816 1862 1880 1846 1751 1577 1620 1664 1722 1760 1762 1739 1708 1665 1594 1565 1506 1423 1408 1230 1033
776 675 953 1324 1372 1211 1120 1175 1263 1259 1369 1458 1446 1446 1382 1310 1304 1392 1565 1716 1803 1880 1948 1982 1966 1860 1730 1683 1737 1808 1860 1888 1869 1821 1742 1678 1651 1599 1500 1434 1247 1212
775 786 832 1112 1362 1509 1405 1352 1383 1382 1478 1565 1614 1521 1449 1439 1412 1427 1531 1639 1729 1825 1918 1956 1947 1904 1844 1764 1804 1878 1941 1949 1911 1871 1814 1739 1709 1661 1583 1566 1423 1295
783 643 673 986 1302 1503 1545 1353 1148 1295 1383 1298 1529 1570 1506 1448 1442 1429 1487 1652 1745 1806 1881 1954 1978 1984 1939 1866 1868 1953 2004 2001 1952 1889 1844 1794 1757 1726 1690 1657 1477 1268
846 929 802 921 1153 1412 1501 1412 1135 1091 1184 1151 1268 1494 1576 1524 1443 1418 1432 1527 1696 1831 1917 1946 1992 2008 1962 1925 1932 1951 1983 1998 1971 1906 1860 1832 1810 1786 1766 1706 1518 1243
747 976 1039 1062 1142 1363 1446 1247 1351 1269 1260 1304 1394 1422 1480 1590 1536 1434 1434 1497 1540 1610 1709 1832 1969 1992 1950 1932 1932 1880 1920 1961 1909 1857 1850 1848 1833 1829 1832 1704 1442 1244
680 941 959 990 1084 1250 1260 1380 1355 1298 1369 1338 1260 1334 1398 1489 1586 1517 1418 1508 1592 1630 1629 1658 1769 1872 1818 1760 1791 1819 1840 1814 1790 1789 1842 1887 1888 1881 1762 1488 1348 1273
613 885 923 901 968 1092 936 1104 1200 1259 1276 1406 1385 1255 1194 1279 1424 1513 1489 1438 1551 1656 1697 1667 1660 1725 1756 1620 1681 1728 1705 1695 1712 1784 1814 1835 1845 1753 1468 1362 1355 1289
396 700 871 884 874 880 1089 1197 1034 1108 1245 1269 1223 1146 1074 1240 1459 1575 1586 1518 1472 1594 1696 1724 1731 1744 1779 1738 1652 1642 1629 1656 1664 1672 1679 1692 1642 1416 1317 1338 1303 1208
313 397 626 759 802 828 845 1155 1221 1091 1024 1176 1326 1268 1185 1172 1338 1484 1571 1524 1360 1334 1507 1703 1750 1819 1878 1840 1806 1678 1539 1614 1584 1546 1508 1451 1332 1264 1266 1262 1287 1236
76 103 308 530 640 706 750 865 1235 1192 1054 1076 1174 1290 1262 1048 1194 1396 1477 1265 1010 840 912 1296 1529 1866 1979 2039 1989 1811 1560 1555 1526 1500 1525 1464 1342 1295 1293 1337 1340 1294
0 4 192 220 390 532 616 661 975 1278 1142 1064 1190 1382 1328 1161 1175 1258 1313 1163 908 659 712 973 1205 1471 1985 2094 2059 1843 1567 1584 1574 1596 1575 1436 1372 1344 1357 1384 1373 1363
0 6 77 200 347 452 522 594 716 893 1154 1055 1029 1217 1441 1452 1323 1226 1209 1044 737 754 841 934 1094 1209 1671 1954 2103 2008 1809 1659 1630 1595 1557 1412 1379 1412 1436 1421 1419 1403
0 5 82 185 339 446 520 572 613 718 801 867 952 1100 1239 1387 1365 1308 1178 858 665 669 785 887 1055 1162 1034 1554 1798 2087 1889 1676 1637 1629 1603 1530 1477 1450 1509 1496 1468 1468
1 22 59 122 186 325 435 522 592 649 664 714 743 858 1084 1239 1068 1097 1309 1057 939 880 952 1151 1238 1207 1051 802 1411 1690 1817 1723 1746 1738 1680 1612 1571 1457 1457 1496 1519 1456
Wind_Speed
13 12 13 13 12 11 11 12 11 10 8 6 2 5 8 11 14 14 13 15 15 13 12 10 8 7 9 11 11 10 10 10 13 16 16 15 14 13 11 10 10 11
13 14 13 12 12 11 11 12 12 11 8 6 2 3 6 9 10 12 14 16 15 13 12 10 7 7 10 12 11 10 11 13 13 16 14 13 13 12 10 9 9 10
12 14 14 15 14 13 13 12 13 11 8 6 4 2 2 5 6 8 12 16 16 16 16 13 11 10 11 11 10 10 11 12 12 13 13 12 13 11 9 9 9 7
12 13 14 14 14 13 13 13 13 13 10 8 5 3 2 2 3 3 7 11 14 15 16 15 10 9 9 9 10 10 11 11 11 13 13 15 12 11 10 11 10 10
11 12 12 13 13 13 13 13 13 14 14 10 6 5 4 2 2 2 5 8 11 12 11 9 9 8 8 8 9 9 10 10 12 13 14 13 11 10 11 12 12 11
10 11 11 13 14 15 14 12 13 14 15 13 9 7 5 4 3 2 3 5 7 7 7 7 7 8 7 7 8 8 9 10 12 14 14 13 12 12 12 11 12 12
11 12 11 11 12 15 15 14 13 14 15 14 12 9 7 6 4 3 2 3 4 5 5 5 5 6 7 7 7 8 9 10 13 15 14 14 15 13 13 14 15 16
14 14 14 13 11 10 13 15 15 15 15 15 14 11 9 7 5 4 4 4 4 4 5 6 6 6 6 6 6 8 8 9 11 13 13 14 15 15 16 16 17 17
19 18 17 15 12 10 9 13 16 16 16 16 15 12 10 9 7 5 5 6 6 5 5 6 5 4 4 3 3 5 6 6 7 9 11 12 13 14 16 18 18 16
22 23 22 20 16 13 10 10 13 16 16 16 16 14 12 11 9 7 6 6 5 5 5 5 5 4 3 2 0 2 4 5 5 6 8 9 10 11 13 15 16 16
24 24 26 26 23 20 17 15 14 15 16 16 17 15 13 13 11 10 7 6 5 5 5 5 4 4 3 2 3 1 2 5 5 5 5 6 7 9 11 12 12 11
31 33 34 36 36 33 28 25 21 18 16 16 16 15 14 13 12 10 9 7 7 7 6 5 5 5 4 3 3 2 1 3 4 5 5 5 5 6 8 10 9 7
30 35 28 20 23 24 24 22 24 25 21 17 17 16 15 14 12 11 10 9 8 9 8 6 6 5 5 4 4 3 2 2 4 5 5 5 6 6 6 7 6 6
27 32 29 22 20 22 24 23 20 19 17 16 18 17 15 14 14 13 13 13 10 10 9 9 7 6 5 5 4 3 3 4 5 5 5 4 5 6 5 4 4 4
32 34 32 28 24 21 21 21 19 20 22 21 19 17 17 16 16 17 17 15 14 12 12 11 9 7 7 6 4 3 4 5 6 6 6 4 3 3 3 2 1 2
38 36 36 36 33 26 22 21 21 23 23 22 22 21 19 19 20 20 19 18 17 16 15 14 12 11 8 3 4 5 6 7 8 7 6 5 3 1 1 1 1 3
43 41 39 36 35 35 30 22 20 24 26 25 25 23 22 22 23 22 21 21 21 21 19 16 15 14 8 8 6 5 8 9 9 8 7 6 5 3 1 2 2 4
45 43 41 36 36 35 34 27 25 26 26 28 30 28 26 27 26 25 24 25 25 25 23 20 18 14 10 10 10 9 10 12 13 11 10 9 7 5 3 2 1 3
49 47 42 39 36 35 36 34 33 32 27 27 28 32 34 30 27 28 28 28 28 26 24 23 22 17 14 12 12 12 12 14 16 15 13 11 9 7 6 5 4 3
51 50 46 42 38 38 38 38 38 37 36 33 32 36 36 35 36 35 35 34 32 28 26 25 24 22 18 15 14 15 14 16 18 17 15 12 10 9 8 7 6 4
53 51 47 43 40 39 40 40 39 42 47 43 36 34 36 34 33 33 34 36 37 36 33 29 26 23 23 19 17 17 16 17 20 19 18 16 13 11 10 9 8 7
nan 50 48 45 42 40 40 40 42 44 48 48 44 38 36 35 33 32 31 31 34 37 38 33 29 24 25 21 19 18 20 20 21 21 20 19 17 15 13 11 11 10
nan nan 47 46 45 43 41 40 42 45 45 48 46 42 38 34 30 31 33 35 37 40 40 37 31 29 26 24 22 22 26 23 24 24 23 22 20 18 15 14 13 12
nan nan nan 46 46 45 43 42 43 44 45 47 45 43 41 38 32 31 35 36 37 39 39 37 34 30 25 24 26 28 29 27 27 28 25 24 22 20 19 17 15 11
nan nan nan 46 47 46 46 45 45 44 46 47 44 42 41 41 38 33 33 34 34 35 36 35 34 30 29 24 25 30 29 29 31 31 29 26 26 23 22 20 18 15
nan nan nan 46 47 47 49 48 48 48 47 46 45 44 42 42 42 37 35 34 34 36 37 36 35 32 33 26 23 28 30 31 33 34 29 28 28 27 25 22 21 19
Wind_Direction
338 343 351 357 354 336 313 306 306 314 313 309 309 216 223 220 227 231 228 230 230 230 230 230 234 235 239 241 243 242 241 243 244 247 250 250 245 244 242 243 238 238
333 334 336 340 349 344 327 310 305 313 316 312 315 200 199 217 228 239 238 237 233 231 233 236 235 235 240 244 244 244 237 237 238 239 243 244 242 239 232 238 235 230
322 326 328 330 337 344 340 322 306 304 308 308 290 255 192 203 217 227 230 232 231 230 232 233 225 226 238 246 246 242 240 238 235 234 235 234 235 236 229 235 233 230
316 320 320 322 322 327 332 328 313 303 294 291 305 307 288 220 217 191 189 200 211 213 218 221 215 214 226 238 243 239 240 241 240 240 237 231 231 232 229 228 221 216
303 308 306 307 308 310 313 325 323 311 305 307 294 282 284 256 237 168 154 169 190 194 200 204 205 211 220 229 240 245 247 250 249 252 251 249 241 236 228 228 222 221
286 288 291 297 301 303 306 316 321 314 308 298 301 281 274 268 246 210 170 162 173 180 186 198 208 218 233 238 248 255 261 263 261 262 260 260 252 243 240 238 235 236
277 275 277 275 285 299 303 307 308 311 309 305 289 284 272 266 258 247 221 185 179 183 194 210 218 227 240 253 265 266 263 266 265 267 267 257 254 250 243 245 243 241
267 263 261 254 255 273 296 300 300 303 305 299 299 292 278 271 261 244 240 235 213 196 200 212 222 230 243 254 269 270 266 261 268 275 270 260 254 250 246 244 245 247
267 264 258 253 249 243 260 287 293 295 299 302 299 294 282 272 262 243 232 228 219 209 203 204 213 218 228 241 255 280 288 279 276 279 275 266 261 254 250 245 244 244
267 263 256 246 239 232 229 247 272 283 290 297 295 290 288 275 266 254 233 218 213 204 194 191 191 193 195 190 229 297 303 309 297 282 270 268 271 266 260 254 250 247
234 246 243 232 222 218 214 218 231 253 269 283 286 287 283 276 264 251 235 217 202 193 188 185 183 186 180 169 163 181 323 317 314 306 286 280 283 282 278 272 262 258
243 239 239 232 222 213 208 203 210 225 237 252 272 280 276 274 271 254 236 216 196 188 191 185 186 190 185 179 163 170 237 299 307 319 323 315 314 302 291 286 282 272
277 275 272 268 257 251 246 235 220 207 215 228 240 258 269 267 261 257 240 223 200 191 189 194 190 187 184 187 189 191 196 243 277 300 317 330 335 334 312 300 290 275
281 276 281 289 284 269 264 268 271 265 247 229 237 246 257 264 260 255 244 231 215 200 192 197 196 192 194 198 202 202 204 218 248 273 291 312 332 341 336 324 302 278
280 285 286 283 284 284 276 271 277 284 282 273 263 260 258 259 256 253 249 242 230 218 206 202 199 198 209 220 218 208 218 231 243 256 269 287 311 335 339 342 265 247
277 280 286 287 285 288 287 275 265 265 266 265 265 262 263 264 261 255 254 253 246 236 224 213 208 211 218 266 259 236 236 236 242 246 251 260 284 312 342 42 139 180
278 280 283 287 289 288 286 279 263 259 262 259 257 257 256 258 262 261 258 255 255 250 243 229 220 218 230 251 264 275 245 240 245 240 235 241 246 267 342 45 127 149
272 276 281 285 286 287 288 284 264 256 260 257 252 250 250 250 253 257 258 256 253 252 251 247 238 232 242 247 257 263 255 243 240 237 233 229 229 238 237 233 131 137
269 272 275 277 280 283 284 282 277 272 268 264 255 246 242 243 246 250 251 250 250 252 252 252 248 251 253 253 258 263 265 254 239 239 238 228 222 223 229 229 217 187
264 268 270 272 273 274 275 276 277 276 273 264 250 243 243 244 241 242 243 242 242 246 249 249 252 258 267 265 265 271 272 261 244 246 242 238 230 226 225 226 226 222
259 263 265 266 267 268 269 270 271 271 269 269 265 253 246 248 251 253 256 258 253 247 240 240 244 259 267 272 271 276 278 267 251 249 247 243 239 232 230 232 231 226
nan 258 260 262 262 262 263 265 267 270 271 273 273 263 247 241 241 246 253 259 265 268 264 249 233 249 262 269 276 275 277 258 252 252 250 247 245 239 234 233 234 237
nan nan 255 257 259 258 258 261 265 268 269 270 272 268 260 255 250 242 239 242 249 258 265 264 255 243 253 265 271 274 264 253 253 251 249 249 246 244 242 241 240 243
nan nan nan 253 255 255 255 256 260 264 268 269 273 273 270 269 264 247 235 237 245 253 257 258 258 258 250 254 267 268 266 258 255 255 254 253 248 246 246 244 247 272
nan nan nan 254 254 253 254 254 257 261 264 265 268 270 271 273 272 257 242 240 246 250 255 254 252 257 255 236 248 262 259 250 254 255 258 257 256 253 248 247 246 251
nan nan nan 257 255 254 254 255 255 256 260 262 263 265 266 265 266 257 246 245 246 247 247 247 246 250 255 250 242 253 258 248 248 254 256 259 257 257 254 248 249 248